Regional Weather Roundup
Issued by NWS State College, PA

Home | Current Version | Previous Version | Graphics & Text | Print | Product List | Glossary On
Versions: 1 2 3 4 5 6 7 8 9 10 11 12 13 14 15 16 17 18 19 20 21 22 23 24 25 26 27 28 29 30 31 32 33 34 35 36 37 38 39 40 41 42 43 44 45 46 47 48 49 50
000
ASUS41 KCTP 261903
RWRCTP

REGIONAL WEATHER ROUNDUP
NATIONAL WEATHER SERVICE STATE COLLEGE PA
300 PM EDT WED APR 26 2017

Note: "fair" indicates few or no clouds below 12,000 feet with no
significant weather and/or obstructions to visibility.

* = STATION THAT DOES NOT REPORT PRECIPITATION /E.G. RAIN...SNOW...ETC/
    THUNDER OR FOG.

PAZ002>004-007>009-013>016-020>023-029>032-262000-
WESTERN PENNSYLVANIA

CITY           SKY/WX    TMP DP  RH WIND       PRES   REMARKS
ERIE           MOSUNNY   73  57  57 S10       29.70F
MEADVILLE      SUNNY     71  55  56 SW8G16    29.73F
FRANKLIN*      SUNNY     70  54  56 SE9       29.74F
NEW CASTLE     FAIR      76  57  51 SE5       29.73F
BEAVER COUNTY  SUNNY     75  55  50 SE5       29.73F
BUTLER*        CLOUDY    72  57  60 SE8       29.75F
PITTSBURGH INT CLOUDY    74  56  53 SE10      29.73F
PITTSBURGH     CLOUDY    73  55  53 S3        29.74F
INDIANA*       SUNNY     70  55  60 CALM      29.79F
LATROBE        MOSUNNY   72  57  60 VRB5      29.76
WASHINGTON CO* CLOUDY    75  57  53 E5        29.76F
$$

PAZ004>006-010>012-017>019-024>028-033>037-041-042-045-046-049>053-262000-
CENTRAL PENNSYLVANIA

CITY           SKY/WX    TMP DP  RH WIND       PRES   REMARKS
BRADFORD       CLOUDY    71  55  56 VRB5      29.77S
DUBOIS         CLOUDY    68  54  60 VRB6      29.77F
CLEARFIELD     MOSUNNY   69  57  65 MISG      29.78F
JOHNSTOWN      MOSUNNY   70  54  56 W8        29.79F
ALTOONA        MOSUNNY   71  58  63 CALM      29.79F
STATE COLLEGE  MOSUNNY   68  57  68 CALM      29.78F
WILLIAMSPORT   SUNNY     72  57  59 VRB5      29.74F
SELINSGROVE    MOSUNNY   68  59  73 CALM      29.76F
FT INDIANTOWN  CLOUDY    66  61  82 N5        29.76F
CAPITAL CITY   CLOUDY    67  57  70 NW5       29.77F
HARRISBURG     PTSUNNY   64  59  83 VRB3      29.76F
YORK           CLOUDY    64  59  83 CALM      29.77F
$$

PAZ038>040-043-044-047-048-054-055-060>062-067>071-262000-
EASTERN PENNSYLVANIA

CITY           SKY/WX    TMP DP  RH WIND       PRES   REMARKS
SCRANTON       PTSUNNY   71  57  61 E7        29.75F
MOUNT POCONO   CLOUDY    58  56  93 NE5       29.78F
ALLENTOWN      CLOUDY    64  54  69 E6        29.77F
QUAKERTOWN*    CLOUDY    63  55  77 N5        29.78F
READING        CLOUDY    65  58  78 CALM      29.75F
LANCASTER      CLOUDY    64  60  87 CALM      29.77S
COATESVILLE    CLOUDY    61  57  88 CALM      29.79R
POTTSTOWN      CLOUDY    62  55  77 NE3       29.78F
BLUE BELL      CLOUDY    59  55  88 NE3       29.78F
DOYLESTOWN     CLOUDY    61  56  83 NE5       29.76F
WILLOW GROVE   NOT AVBL
NORTH PHILA    CLOUDY    63  57  81 N3        29.78S
PHILADELPHIA   CLOUDY    63  56  78 VRB3      29.76F
$$




USA.gov is the U.S. government's official web portal to all federal, state and local government web resources and services.